Weather in Flensburg

Germany     54°46′48″N   9°25′56″E
temp.,
°C
wind,
m/s
gust,
m/s
humid.,
%
clouds,
%
prec.,
mm/h
press.,
hPa
HPBL,
m
6 may, thu
thu623:00+4w101496100 0.8 9981084
02:00+4w101695100 1.6 9991059
05:00+4w101697100 1.6 10001158
08:00+5w81491100 2.8 10001218
11:00+6w91488100 1.2 10011287
14:00+7wnw11158099 2.1 10031382
17:00+8wnw8106155 0.6 10031727
20:00+6w59745 0.6 1004741
7 may, fri
fri723:00+1wnw34945 0.0 100460
02:00+1wnw489425 0.0 1004152
05:00+3wnw388298 0.0 1005386
08:00+5wnw51078100 0.0 1006867
11:00+6nw7981100 0.1 1008945
14:00+8w786197 0.5 10091608
17:00+8w797832 0.3 10101161
20:00+6w610815 0.5 1011732
8 may, sat
sat823:00+4w512935 0.0 1012429
02:00+3w411935 0.0 1014255
05:00+2w48925 0.0 1015154
08:00+6w58805 0.0 1015777
11:00+10wsw676091 0.0 10161400
14:00+11sw5655100 0.0 10151590
17:00+12ssw475693 0.0 10131725
20:00+10sse41071100 0.1 1011447
9 may, sun
sun923:00+10sse71355100 0.0 10081380
02:00+8s91896100 3.5 1005767
05:00+10ssw8179445 1.6 1003658
08:00+11ssw6139571 1.6 1004427
11:00+16ssw61179100 0.0 1004713
14:00+20s696595 0.0 1003907
17:00+18s41178100 0.1 1002522
20:00+18sse51382100 0.1 1001500
10 may, mon
mon1023:00+15s51488100 0.3 1001342
02:00+14s51395100 1.1 1001321
05:00+14s4998100 0.6 1002265
08:00+15sw61293100 0.6 1002659
11:00+16s7139289 0.7 10041122
14:00+15wsw81186100 1.2 1007912
17:00+15wsw467695 0.1 1009990
20:00+13nnw238581 0.1 1009123